SL-8 DEB *, 3965

Orbit data source: Space-Track

SL-8 DEB *, 3965 is space debris in LEO originally from a launch on Mon, 15 Mar 1965 UTC launched from the Tyuratam Missile And Space Complex (TTMTR). Debris objects in space refer to the collection of defunct objects orbiting the Earth. Examples of debris include non-operational satellites, rocket bodies, and fragments generated from explosions, collisions, or faulty payload assembly.

Loading next visibility...
Identifier
3965, 1965-020EY
Orbit
LEO
Country
Flag of CISCIS
Related business
Manufacturer
Unknown
Mission
Spacecraft
Bus & Motor
Unknown
Mass
Unknown
Launch date (UTC)
1965-03-15 (61 years ago)
Launch vehicle
Unknown
Launch site
Tyuratam Missile And Space Complex (TTMTR)
Object type
Payload
Rocket body
Debris
Shape & HBR
Unknown shape, 0.1 m
Radar Cross Section
Medium (>0.1 m² and <1 m²)

Expand to show TLE details & history
Last TLE update: 2 days ago

TLE from 2 days ago
0 SL-8 DEB *
1 03965U 65020EY  26207.30942291 -.00000093  00000-0 -36245-4 0  9991
2 03965  56.3001 304.7191 0265259 339.5489  51.2408 12.27676760754173
Epoch: 2026-07-26T07:25Z
TLE epoch observation values (Epoch: 2026-07-26T07:25:34.139Z)
Latitude
27.17373°
Longitude
-90.76476°
Altitude
1,432.474 km
Speed
7.206 km/s
True Right ascension
21h 38m 32s
True Declination
27° 02' 47"
Sunlit
Object was in full shadow at epoch
Visualization orbit readout
Latitude
Unknown
Longitude
Unknown
Altitude
Unknown
Speed
Unknown
Apparent Right ascension
Unknown
Apparent Declination
Unknown
Sunlit
N/A
Visualization observer readout
Local Sidereal Time
16:35:50
Azimuth
Unknown
Elevation
Unknown
Doppler factor
Unknown
Orbital elements
Apogee altitude
1,769.613 km
Perigee altitude
1,348.53 km
Semi-major axis
7,937.209 km
Eccentricity
0.02653
Inclination
56.3001°
RAAN
304.7191°
Arg. of periapsis
339.5489°
True anomaly
53.66055°
Mean anomaly
51.2408°
Eccentric anomaly
52.44568°
Mean motion
3.06932 °/min
Orbital period
117.29 mins
BSTAR
-0.000036245
Loading maneuver chart data...
Computing Atmospheric mass density...
Loading historical data...
Loading historical data...
Loading historical data...
Loading historical data...
Loading historical data...
Loading historical data...
Loading historical data...

Documentation

Showing up to 5 results
|